Date String (YYYY-MM-DD hh:mm:ss) UTC,Instrument flags,absolute air pressure of the measurement (hPa),sample flow rate (lpm),inlet stack bypass flow (lpm),air temperature of the measurement (°C),ambient temperature measured by the external sensor (°C),aerosol sample conditioner tube jacket temperature (°C),OPC LED temperature (°C),internal box temperature (°C),relative humidity of the measurement (%),span deviation,mass concentration of particles derived from Lorenz-Mie calculation of OPC scattering (μg/m³),mass concentration of particles derived from Lorenz-Mie calculation of OPC scattering (μg/m³),mass concentration of particles derived from Lorenz-Mie calculation of OPC scattering (μg/m³)
DateTimeUTC,F1_M11,P_M11,Q1_M11,Q2_M11,T1_M11,T2_M11,T3_M11,T4_M11,T5_M11,U1_M11,ZSPAN_M11,X2_M11,X0_M11,X1_M11
2024-02-12 14:00:00,SystemResetWarning,0827.3,5.01,000.00,018.7,018.7,000.0,026.9,020.6,11.6,0000.0,0003.50,0016.46,0001.69
2024-02-12 14:01:00,SystemResetWarning,0827.3,5.01,000.00,018.7,018.5,000.0,026.9,020.4,11.7,0000.0,0003.42,0014.53,0001.65
2024-02-12 14:02:00,SystemResetWarning,0827.3,5.00,000.00,018.6,018.4,000.0,026.9,020.4,11.7,0000.0,0003.34,0013.10,0001.65
2024-02-12 14:03:00,SystemResetWarning,0827.3,5.00,000.00,018.6,018.3,000.0,026.9,020.3,11.7,0000.0,0003.30,0011.94,0001.63
2024-02-12 14:04:00,SystemResetWarning,0827.3,5.00,000.00,018.6,018.2,000.0,026.9,020.3,11.8,0000.0,0003.25,0010.35,0001.63
2024-02-12 14:05:00,SystemResetWarning,0827.4,5.00,000.00,018.6,018.1,000.0,026.9,020.2,11.8,0000.0,0003.18,0010.64,0001.63
2024-02-12 14:06:00,SystemResetWarning,0827.4,5.00,000.00,018.6,018.1,000.0,026.9,020.2,11.9,0000.0,0003.16,0010.03,0001.63
2024-02-12 14:07:00,SystemResetWarning,0827.4,5.00,000.00,018.5,018.0,000.0,026.9,020.2,12.2,0000.0,0003.17,0010.02,0001.62
2024-02-12 14:08:00,SystemResetWarning,0827.4,4.99,000.00,018.5,018.0,000.0,026.9,020.2,12.5,0000.0,0003.12,0009.70,0001.60
2024-02-12 14:09:00,SystemResetWarning,0827.4,4.99,000.00,018.5,018.0,000.0,026.9,020.2,12.8,0000.0,0003.12,0009.45,0001.61
2024-02-12 14:10:00,SystemResetWarning,0827.4,5.01,000.00,018.5,017.9,000.0,026.9,020.2,12.9,0000.0,0003.08,0009.56,0001.60
2024-02-12 14:11:00,SystemResetWarning,0827.4,5.01,000.00,018.5,017.9,000.0,026.9,020.2,13.0,0000.0,0003.10,0010.67,0001.59
2024-02-12 14:12:00,SystemResetWarning,0827.4,5.01,000.00,018.5,017.9,000.0,026.9,020.2,13.0,0000.0,0003.17,0011.13,0001.61
2024-02-12 14:13:00,SystemResetWarning,0827.4,4.99,000.00,018.4,017.9,000.0,026.9,020.2,13.0,0000.0,0003.27,0012.74,0001.61
2024-02-12 14:14:00,SystemResetWarning,0827.4,4.99,000.00,018.4,017.9,000.0,026.9,020.1,13.0,0000.0,0003.39,0014.75,0001.62
2024-02-12 14:15:00,SystemResetWarning,0827.4,5.00,000.00,018.4,017.9,000.0,026.9,020.1,13.0,0000.0,0003.60,0015.98,0001.64
2024-02-12 14:16:00,SystemResetWarning,0827.4,5.01,000.00,018.4,017.8,000.0,026.9,020.1,13.0,0000.0,0003.71,0016.70,0001.66
2024-02-12 14:17:00,SystemResetWarning,0827.4,5.00,000.00,018.4,017.8,000.0,026.9,020.1,13.1,0000.0,0003.79,0019.44,0001.66
2024-02-12 14:18:00,SystemResetWarning,0827.5,5.00,000.00,018.4,017.8,000.0,026.8,020.1,13.1,0000.0,0003.90,0021.53,0001.67
2024-02-12 14:19:00,SystemResetWarning,0827.8,5.00,000.00,018.4,017.8,000.0,026.8,020.1,13.0,0000.0,0003.94,0022.83,0001.67
2024-02-12 14:20:00,SystemResetWarning,0827.6,5.00,000.00,018.3,017.8,000.0,026.8,020.1,13.0,0000.0,0003.98,0023.97,0001.68
2024-02-12 14:21:00,SystemResetWarning,0827.9,4.99,000.00,018.3,017.8,000.0,026.8,020.0,12.9,0000.0,0004.03,0023.89,0001.69
2024-02-12 14:22:00,SystemResetWarning,0827.8,4.99,000.00,018.3,017.8,000.0,026.8,020.0,13.0,0000.0,0004.08,0023.02,0001.71
2024-02-12 14:23:00,SystemResetWarning,0827.9,5.01,000.00,018.3,017.8,000.0,026.8,020.0,13.0,0000.0,0004.14,0023.40,0001.71
2024-02-12 14:24:00,SystemResetWarning,0827.6,5.01,000.00,018.3,017.8,000.0,026.8,020.0,13.1,0000.0,0004.19,0024.09,0001.72
2024-02-12 14:25:00,SystemResetWarning,0827.6,5.01,000.00,018.3,017.7,000.0,026.8,020.0,13.1,0000.0,0004.16,0023.14,0001.74
2024-02-12 14:26:00,SystemResetWarning,0827.4,4.99,000.00,018.3,017.7,000.0,026.8,020.0,13.2,0000.0,0004.04,0022.67,0001.74
2024-02-12 14:27:00,SystemResetWarning,0827.6,4.99,000.00,018.3,017.7,000.0,026.8,020.0,13.1,0000.0,0004.00,0022.19,0001.74
2024-02-12 14:28:00,SystemResetWarning,0827.5,4.99,000.00,018.3,017.7,000.0,026.8,020.0,13.2,0000.0,0004.00,0021.31,0001.76
2024-02-12 14:29:00,SystemResetWarning,0827.5,5.00,000.00,018.2,017.7,000.0,026.8,020.0,13.3,0000.0,0003.91,0018.99,0001.78
2024-02-12 14:30:00,SystemResetWarning,0827.5,5.01,000.00,018.2,017.7,000.0,026.8,020.0,13.3,0000.0,0003.96,0018.45,0001.77
2024-02-12 14:31:00,SystemResetWarning,0827.5,5.01,000.00,018.2,017.7,000.0,026.8,020.0,13.4,0000.0,0003.97,0019.03,0001.76
2024-02-12 14:32:00,SystemResetWarning,0827.6,5.01,000.00,018.2,017.7,000.0,026.8,020.0,13.5,0000.0,0003.94,0019.62,0001.75
2024-02-12 14:33:00,SystemResetWarning,0827.5,5.00,000.00,018.2,017.7,000.0,026.8,020.0,13.6,0000.0,0003.88,0019.88,0001.73
2024-02-12 14:34:00,SystemResetWarning,0827.5,5.00,000.00,018.2,017.7,000.0,026.8,020.0,13.5,0000.0,0003.82,0019.67,0001.73
2024-02-12 14:35:00,SystemResetWarning,0827.5,4.99,000.00,018.2,017.7,000.0,026.8,020.0,13.0,0000.0,0003.79,0018.94,0001.73
2024-02-12 14:36:00,SystemResetWarning,0827.6,5.00,000.00,018.2,017.7,000.0,026.8,020.0,12.9,0000.0,0003.76,0018.36,0001.71
2024-02-12 14:37:00,SystemResetWarning,0827.7,5.00,000.00,018.2,017.7,000.0,026.8,020.0,13.0,0000.0,0003.78,0018.17,0001.71
2024-02-12 14:38:00,SystemResetWarning,0827.7,5.00,000.00,018.2,017.7,000.0,026.8,020.0,12.9,0000.0,0003.76,0017.37,0001.71
2024-02-12 14:39:00,SystemResetWarning,0827.7,5.01,000.00,018.3,017.8,000.0,026.9,020.2,13.0,0000.0,0003.77,0018.01,0001.70
2024-02-12 14:40:00,SystemResetWarning,0827.8,5.01,000.00,018.4,018.5,000.0,027.0,020.6,12.9,0000.0,0003.80,0018.23,0001.70
2024-02-12 14:41:00,SystemResetWarning,0827.7,5.00,000.00,018.6,019.0,000.0,027.0,020.8,12.7,0000.0,0003.77,0018.52,0001.69
2024-02-12 14:42:00,SystemResetWarning,0827.7,4.99,000.00,018.7,018.8,000.0,026.9,020.7,12.8,0000.0,0003.81,0017.51,0001.68
2024-02-12 14:43:00,SystemResetWarning,0827.7,5.00,000.00,018.7,018.7,000.0,026.9,020.5,12.8,0000.0,0003.80,0016.96,0001.69
2024-02-12 14:44:00,SystemResetWarning,0827.7,5.02,000.00,018.6,018.6,000.0,026.9,020.4,12.7,0000.0,0003.80,0016.94,0001.71
2024-02-12 14:45:00,SystemResetWarning,0827.7,4.98,000.00,018.6,018.4,000.0,026.9,020.4,12.7,0000.0,0003.81,0017.28,0001.70
2024-02-12 14:46:00,SystemResetWarning,0827.8,5.00,000.00,018.6,018.3,000.0,026.9,020.3,12.7,0000.0,0003.88,0017.08,0001.70
2024-02-12 14:47:00,SystemResetWarning,0827.7,5.01,000.00,018.6,018.2,000.0,026.9,020.3,12.7,0000.0,0003.88,0016.89,0001.70
2024-02-12 14:48:00,SystemResetWarning,0827.7,5.01,000.00,018.6,018.1,000.0,026.9,020.3,12.7,0000.0,0003.86,0016.85,0001.72
2024-02-12 14:49:00,SystemResetWarning,0827.7,5.00,000.00,018.5,018.1,000.0,026.9,020.3,12.6,0000.0,0003.90,0017.32,0001.74
2024-02-12 14:50:00,SystemResetWarning,0827.8,5.00,000.00,018.5,018.0,000.0,026.9,020.2,12.6,0000.0,0003.92,0016.47,0001.73
2024-02-12 14:51:00,SystemResetWarning,0827.8,4.99,000.00,018.5,018.0,000.0,026.9,020.2,12.6,0000.0,0003.90,0016.07,0001.72
2024-02-12 14:52:00,SystemResetWarning,0827.8,4.99,000.00,018.5,018.0,000.0,026.9,020.2,12.6,0000.0,0003.87,0015.63,0001.71
2024-02-12 14:53:00,SystemResetWarning,0827.8,5.00,000.00,018.5,017.9,000.0,026.9,020.2,12.7,0000.0,0003.78,0015.26,0001.70
2024-02-12 14:54:00,SystemResetWarning,0827.8,5.00,000.00,018.4,017.9,000.0,026.9,020.1,12.7,0000.0,0003.78,0015.39,0001.68
2024-02-12 14:55:00,SystemResetWarning,0827.8,5.00,000.00,018.4,017.9,000.0,026.9,020.1,12.7,0000.0,0003.79,0015.89,0001.66
2024-02-12 14:56:00,SystemResetWarning,0827.8,5.00,000.00,018.4,017.9,000.0,026.9,020.1,12.7,0000.0,0003.75,0015.01,0001.64
2024-02-12 14:57:00,SystemResetWarning,0827.8,5.00,000.00,018.4,017.9,000.0,026.9,020.1,12.8,0000.0,0003.64,0014.41,0001.63
2024-02-12 14:58:00,SystemResetWarning,0827.8,5.01,000.00,018.4,017.8,000.0,026.9,020.1,12.8,0000.0,0003.60,0014.92,0001.63
2024-02-12 14:59:00,SystemResetWarning,0827.7,5.00,000.00,018.4,017.8,000.0,026.9,020.1,12.8,0000.0,0003.51,0014.69,0001.60
